Tillbaka till svenska Fidonet
English   Information   Debug  
FILM   0/18
FNEWS_PUBLISH   4983
FN_SYSOP   42232
FN_SYSOP_OLD1   71952
FTP_FIDO   0/2
FTSC_PUBLIC   0/13976
FUNNY   0/4886
GENEALOGY.EUR   0/71
GET_INFO   105
GOLDED   0/408
HAM   0/16726
HOLYSMOKE   0/6791
HOT_SITES   0/1
HTMLEDIT   0/71
HUB203   466
HUB_100   264
HUB_400   39
HUMOR   0/29
IC   0/2851
INTERNET   0/424
INTERUSER   0/3
IP_CONNECT   719
JAMNNTPD   0/233
JAMTLAND   0/47
KATTY_KORNER   0/41
LAN   0/16
LINUX-USER   0/19
LINUXHELP   0/1155
LINUX   0/22390
LINUX_BBS   0/957
mail   18.68
mail_fore_ok   249
MENSA   0/341
MODERATOR   0/102
MONTE   0/992
MOSCOW_OKLAHOMA   0/1245
MUFFIN   0/783
MUSIC   0/321
N203_STAT   938
N203_SYSCHAT   313
NET203   321
NET204   69
NET_DEV   0/10
NORD.ADMIN   0/101
NORD.CHAT   0/2572
NORD.FIDONET   189
NORD.HARDWARE   0/28
NORD.KULTUR   0/114
NORD.PROG   0/32
NORD.SOFTWARE   0/88
NORD.TEKNIK   0/58
NORD   0/453
OCCULT_CHAT   0/93
OS2BBS   0/787
OS2DOSBBS   0/580
OS2HW   0/42
OS2INET   0/37
OS2LAN   0/134
OS2PROG   0/36
OS2REXX   0/113
OS2USER-L   207
OS2   0/4831
OSDEBATE   0/18996
PASCAL   0/490
PERL   0/457
PHP   0/45
POINTS   0/405
POLITICS   0/29554
POL_INC   0/14731
PSION   103
R20_ADMIN   1133
R20_AMATORRADIO   0/2
R20_BEST_OF_FIDONET   16
R20_CHAT   0/897
R20_DEPP   0/3
R20_DEV   400
R20_ECHO2   1891
R20_ECHOPRES   0/35
R20_ESTAT   0/719
R20_FIDONETPROG...
...RAM.MYPOINT
  0/2
R20_FIDONETPROGRAM   0/22
R20_FIDONET   0/248
R20_FILEFIND   0/24
R20_FILEFOUND   0/22
R20_HIFI   0/3
R20_INFO2   3783
R20_INTERNET   0/12940
R20_INTRESSE   0/60
R20_INTR_KOM   0/99
R20_KANDIDAT.CHAT   42
R20_KANDIDAT   28
R20_KOM_DEV   112
R20_KONTROLL   0/13360
R20_KORSET   0/18
R20_LOKALTRAFIK   0/24
R20_MODERATOR   0/1852
R20_NC   76
R20_NET200   245
R20_NETWORK.OTH...
...ERNETS
  0/13
R20_OPERATIVSYS...
...TEM.LINUX
  0/44
R20_PROGRAMVAROR   0/1
R20_REC2NEC   534
R20_SFOSM   0/341
R20_SF   0/108
R20_SPRAK.ENGLISH   0/1
R20_SQUISH   107
R20_TEST   2
R20_WORST_OF_FIDONET   20
RAR   0/9
RA_MULTI   106
RA_UTIL   0/162
REGCON.EUR   0/2069
REGCON   0/13
SCIENCE   0/1206
SF   0/239
SHAREWARE_SUPPORT   0/5146
SHAREWRE   0/14
SIMPSONS   0/169
STATS_OLD1   0/2539.065
STATS_OLD2   0/2530
STATS_OLD3   0/2395.095
STATS_OLD4   0/1692.25
SURVIVOR   0/495
SYSOPS_CORNER   0/3
SYSOP   0/84
TAGLINES   0/112
TEAMOS2   0/4530
TECH   0/2617
TEST.444   0/105
TRAPDOOR   0/19
TREK   0/755
TUB   0/290
UFO   0/40
UNIX   0/1316
USA_EURLINK   0/102
USR_MODEMS   0/1
VATICAN   0/2740
VIETNAM_VETS   0/14
VIRUS   0/378
VIRUS_INFO   0/201
VISUAL_BASIC   0/473
WHITEHOUSE   0/5187
WIN2000   0/101
WIN32   0/30
WIN95   0/4291
WIN95_OLD1   0/70272
WINDOWS   0/1517
WWB_SYSOP   0/419
WWB_TECH   0/810
ZCC-PUBLIC   0/1
ZEC   4

 
4DOS   0/134
ABORTION   0/7
ALASKA_CHAT   0/506
ALLFIX_FILE   0/1313
ALLFIX_FILE_OLD1   0/7997
ALT_DOS   0/152
AMATEUR_RADIO   0/1039
AMIGASALE   0/14
AMIGA   0/331
AMIGA_INT   0/1
AMIGA_PROG   0/20
AMIGA_SYSOP   0/26
ANIME   0/15
ARGUS   0/924
ASCII_ART   0/340
ASIAN_LINK   0/651
ASTRONOMY   0/417
AUDIO   0/92
AUTOMOBILE_RACING   0/105
BABYLON5   0/17862
BAG   135
BATPOWER   0/361
BBBS.ENGLISH   0/382
BBSLAW   0/109
BBS_ADS   0/5290
BBS_INTERNET   0/507
BIBLE   0/3563
BINKD   0/1119
BINKLEY   0/215
BLUEWAVE   0/2173
CABLE_MODEMS   0/25
CBM   0/46
CDRECORD   0/66
CDROM   0/20
CLASSIC_COMPUTER   0/378
COMICS   0/15
CONSPRCY   0/899
COOKING   42028
COOKING_OLD1   0/24719
COOKING_OLD2   0/40862
COOKING_OLD3   0/37489
COOKING_OLD4   0/35496
COOKING_OLD5   9370
C_ECHO   0/189
C_PLUSPLUS   0/31
DIRTY_DOZEN   0/201
DOORGAMES   0/2333
DOS_INTERNET   0/196
duplikat   6102
ECHOLIST   0/18295
EC_SUPPORT   0/318
ELECTRONICS   0/359
ELEKTRONIK.GER   1534
ENET.LINGUISTIC   0/13
ENET.POLITICS   0/4
ENET.SOFT   0/11701
ENET.SYSOP   34336
ENET.TALKS   0/32
ENGLISH_TUTOR   0/2000
EVOLUTION   0/1335
FDECHO   0/217
FDN_ANNOUNCE   0/7068
FIDONEWS   25122
FIDONEWS_OLD1   0/49742
FIDONEWS_OLD2   0/35949
FIDONEWS_OLD3   0/30874
FIDONEWS_OLD4   0/37224
FIDO_SYSOP   12973
FIDO_UTIL   0/180
FILEFIND   0/209
FILEGATE   0/212
Möte HAM, 16726 texter
 lista första sista föregående nästa
Text 3296, 885 rader
Skriven 2009-10-29 22:30:24 av Amsat List (1:323/120.0)
Ärende: [keps]  orb09302.amsa
=============================
[keps]  orb09302.amsa

Return-Path: <keps-bounces@amsat.org>
X-Rcpt: craig.healy@chowda.com
X-UIDL: 1256873311.24293

SB KEPS @ AMSAT  $ORB09302.O
Orbital Elements  09302.OSCAR

HR AMSAT ORBITAL ELEMENTS FOR OSCAR SATELLITES
FROM WA5QGD FORT WORTH,TX October 29, 2009
Send Subscribe/unsubscribe to KEPS at 
http://www.amsat.org/mailman/listinfo/keps
BID: ORB09302.O
TO ALL RADIO AMATEURS BT

Satellite: AO-07
Catalog number: 07530
Epoch time:      09302.64229741
Element set:     616
Inclination:      101.4189 deg
RA of node:       322.3442 deg
Eccentricity:    0.0012054
Arg of perigee:   006.1501 deg
Mean anomaly:     353.9709 deg
Mean motion:   12.53576849 rev/day
Decay rate:       -2.7e-07 rev/day^2
Epoch rev:           59956
Checksum:              294

Satellite: FO-29
Catalog number: 24278
Epoch time:      09302.66986538
Element set:     165
Inclination:      098.5294 deg
RA of node:       158.4898 deg
Eccentricity:    0.0351069
Arg of perigee:   001.9089 deg
Mean anomaly:     358.3300 deg
Mean motion:   13.52945688 rev/day
Decay rate:       -5.0e-07 rev/day^2
Epoch rev:           65193
Checksum:              356

Satellite: SO-33
Catalog number: 25509
Epoch time:      09302.60674044
Element set:     574
Inclination:      031.4318 deg
RA of node:       012.3932 deg
Eccentricity:    0.0354225
Arg of perigee:   073.7945 deg
Mean anomaly:     290.1350 deg
Mean motion:   14.28270079 rev/day
Decay rate:       1.62e-06 rev/day^2
Epoch rev:           57506
Checksum:              286

Satellite: RS-22
Catalog number: 27939
Epoch time:      09301.67237653
Element set:     924
Inclination:      097.9203 deg
RA of node:       171.5256 deg
Eccentricity:    0.0014701
Arg of perigee:   071.9210 deg
Mean anomaly:     288.3600 deg
Mean motion:   14.63351167 rev/day
Decay rate:       1.12e-06 rev/day^2
Epoch rev:           32509
Checksum:              288

Satellite: VO-52
Catalog number: 28650
Epoch time:      09302.57984985
Element set:     354
Inclination:      097.7269 deg
RA of node:       359.6003 deg
Eccentricity:    0.0026198
Arg of perigee:   312.4018 deg
Mean anomaly:     047.5009 deg
Mean motion:   14.81633544 rev/day
Decay rate:       -6.3e-07 rev/day^2
Epoch rev:           24254
Checksum:              322

Satellite: SO-67
Catalog number: 35870
Epoch time:      09302.87042381
Element set:     125
Inclination:      097.3668 deg
RA of node:       352.1426 deg
Eccentricity:    0.0012716
Arg of perigee:   140.4319 deg
Mean anomaly:     339.3539 deg
Mean motion:   15.22830636 rev/day
Decay rate:       7.17e-06 rev/day^2
Epoch rev:             641
Checksum:              299

/EX
SB KEPS @ AMSAT  $ORB09302.D
Orbital Elements  09302.MICROS

HR AMSAT ORBITAL ELEMENTS FOR THE MICROSATS
FROM WA5QGD FORT WORTH,TX October 29, 2009
Send Subscribe/unsubscribe to KEPS at 
http://www.amsat.org/mailman/listinfo/keps
BID: ORB09302.D
TO ALL RADIO AMATEURS BT

Satellite: AO-16
Catalog number: 20439
Epoch time:      09301.46696279
Element set:    0737
Inclination:      098.2989 deg
RA of node:       263.9296 deg
Eccentricity:    0.0011622
Arg of perigee:   131.5862 deg
Mean anomaly:     228.6321 deg
Mean motion:   14.31836934 rev/day
Decay rate:       -5.0e-08 rev/day^2
Epoch rev:           03222
Checksum:              317

Satellite: LO-19
Catalog number: 20442
Epoch time:      09302.55021658
Element set:     649
Inclination:      098.2612 deg
RA of node:       271.7047 deg
Eccentricity:    0.0012787
Arg of perigee:   125.4008 deg
Mean anomaly:     234.8357 deg
Mean motion:   14.32071497 rev/day
Decay rate:        2.6e-07 rev/day^2
Epoch rev:            3254
Checksum:              291

Satellite: AO-27
Catalog number: 22825
Epoch time:      09301.64667430
Element set:     374
Inclination:      098.4553 deg
RA of node:       250.9720 deg
Eccentricity:    0.0007770
Arg of perigee:   227.4395 deg
Mean anomaly:     132.6123 deg
Mean motion:   14.29276795 rev/day
Decay rate:        3.2e-07 rev/day^2
Epoch rev:           83897
Checksum:              324

Satellite: IO-26
Catalog number: 22826
Epoch time:      09302.73322228
Element set:     106
Inclination:      098.4471 deg
RA of node:       252.7186 deg
Eccentricity:    0.0008215
Arg of perigee:   220.1135 deg
Mean anomaly:     139.9434 deg
Mean motion:   14.29530094 rev/day
Decay rate:        2.8e-07 rev/day^2
Epoch rev:           83923
Checksum:              288

Satellite: GO-32
Catalog number: 25397
Epoch time:      09301.79502201
Element set:    0027
Inclination:      098.3216 deg
RA of node:       316.9459 deg
Eccentricity:    0.0000862
Arg of perigee:   174.5542 deg
Mean anomaly:     185.5636 deg
Mean motion:   14.23165890 rev/day
Decay rate:       1.05e-06 rev/day^2
Epoch rev:           58713
Checksum:              302

Satellite: NO-44
Catalog number: 26931
Epoch time:      09302.68182321
Element set:     300
Inclination:      067.0521 deg
RA of node:       077.8433 deg
Eccentricity:    0.0006862
Arg of perigee:   272.9861 deg
Mean anomaly:     087.0461 deg
Mean motion:   14.29570988 rev/day
Decay rate:        2.2e-07 rev/day^2
Epoch rev:           42180
Checksum:              296

Satellite: SO-50
Catalog number: 27607
Epoch time:      09301.60052565
Element set:      19
Inclination:      064.5596 deg
RA of node:       339.8965 deg
Eccentricity:    0.0051635
Arg of perigee:   171.2685 deg
Mean anomaly:     188.9325 deg
Mean motion:   14.71469333 rev/day
Decay rate:       -3.3e-07 rev/day^2
Epoch rev:           36830
Checksum:              322

